RH
21 18 17 13 11 11 10 10 10 9 8 8 7 7 8 8 8 8 8 8 9 10 8 8 9 8 8 9 9 11 13 14 20 24 25 24 27 29 41 48 55 55 54 56 60 60 68
18 20 19 13 9 8 10 10 9 10 10 9 9 8 7 7 8 8 8 8 9 9 10 8 8 8 9 8 7 8 11 13 18 25 27 27 33 34 40 51 53 56 52 55 51 47 42
12 14 17 20 17 8 7 7 8 9 9 9 9 9 9 9 8 6 7 8 8 9 9 10 8 8 8 8 7 7 7 10 13 17 25 30 31 40 44 44 51 52 49 50 53 53 46
10 10 10 12 16 20 19 10 7 6 6 6 6 7 7 7 7 6 6 5 7 8 9 8 9 9 8 8 7 7 7 7 10 14 22 28 31 37 38 38 36 38 49 55 50 56 58
8 8 8 9 9 10 12 16 19 18 14 9 6 5 4 4 3 3 3 3 4 6 8 9 9 9 9 8 8 7 7 8 8 11 16 15 20 26 33 41 37 44 55 57 54 50 51
4 4 5 6 7 7 8 8 9 10 12 15 18 18 16 12 9 7 4 3 3 3 6 6 8 9 8 8 8 8 7 9 7 8 12 15 14 16 20 38 54 62 63 58 61 54 51
8 7 6 5 4 4 4 5 6 6 6 6 8 9 12 16 19 19 17 14 9 5 4 4 5 9 8 8 8 8 8 9 8 8 9 15 15 22 20 32 36 52 52 60 45 55 52
9 8 9 9 9 8 8 9 9 7 7 6 5 5 6 8 10 14 19 20 19 15 15 12 7 9 6 7 8 9 8 10 10 8 9 13 11 18 13 26 25 34 49 58 44 51 47
24 31 36 38 35 29 45 47 32 44 49 31 13 9 7 6 7 10 12 17 21 21 19 16 11 9 6 6 9 10 9 10 12 10 9 11 11 13 15 21 17 24 44 53 56 41 45
67 68 66 65 64 64 62 66 66 70 68 71 63 42 28 16 13 14 10 13 18 19 19 17 13 10 6 5 10 10 10 11 14 12 10 10 12 11 11 19 20 23 36 54 51 40 47
79 78 75 75 76 75 74 81 77 67 66 66 70 77 71 71 56 26 21 12 18 22 35 17 14 9 7 7 10 11 11 13 12 14 13 11 11 11 12 21 20 21 34 34 42 42 43
81 84 84 81 83 82 81 79 75 74 73 63 58 63 72 65 68 62 32 17 24 19 15 14 13 10 8 10 12 10 12 12 14 14 17 15 12 13 14 18 20 20 23 24 34 38 58
93 88 88 87 87 91 89 84 87 78 67 77 72 58 67 52 48 53 54 32 19 15 14 15 12 10 10 12 12 11 12 12 15 16 18 21 16 14 16 18 18 23 22 32 40 61 66
94 92 88 87 97 88 91 95 84 77 59 73 54 58 67 60 54 35 34 18 18 16 14 13 12 12 14 13 13 12 12 13 20 20 20 20 19 16 16 20 24 30 36 44 45 74 71
87 86 97 91 95 100 90 100 90 83 62 71 50 64 74 69 63 55 26 19 18 15 16 15 15 16 14 14 14 13 13 15 18 20 24 23 19 18 18 20 26 33 39 33 51 62 59
92 86 86 95 88 98 98 100 91 83 61 58 56 55 72 66 63 59 42 28 23 19 19 18 19 18 16 15 14 13 14 17 17 24 22 23 26 20 21 21 28 32 32 30 31 55 65
58 56 98 90 84 100 82 92 97 92 69 61 64 57 66 66 66 63 40 30 23 21 21 21 21 19 17 15 15 14 16 17 25 21 20 26 28 25 24 24 27 34 35 31 32 49 53
31 28 32 54 93 72 90 97 100 97 88 68 67 64 69 72 71 62 39 27 23 22 22 21 18 16 16 18 22 19 16 17 20 24 26 28 30 30 26 25 30 33 34 33 37 37 40
41 28 29 32 46 74 97 87 100 99 91 80 67 63 65 71 66 56 29 24 22 22 20 19 16 16 18 25 27 26 29 24 23 27 26 29 34 35 26 33 36 38 40 42 41 44 45
62 63 30 27 36 32 56 98 100 99 98 81 78 81 65 76 73 62 42 31 28 23 22 19 18 18 24 30 42 47 41 27 24 30 38 34 27 27 28 36 40 51 57 46 47 53 47
51 40 27 23 22 22 89 77 100 100 100 89 82 83 71 74 75 69 39 26 21 21 20 19 21 26 32 47 54 50 41 44 50 53 46 50 47 50 53 56 63 62 47 46 46 45 52
33 27 21 21 19 53 93 100 100 99 99 86 85 83 82 80 77 82 55 39 30 25 23 23 26 36 48 54 48 47 53 60 63 60 59 64 60 63 68 62 59 54 50 41 37 44 46
36 30 24 19 17 73 80 97 100 99 90 88 86 80 82 80 74 74 63 44 35 30 31 31 35 46 54 60 63 62 62 62 65 69 72 82 81 81 74 65 65 45 43 42 43 42 42
41 42 41 31 21 100 88 98 100 99 91 98 84 97 95 76 72 70 54 49 40 37 34 39 51 62 69 71 68 64 61 61 62 64 75 80 92 96 82 72 68 49 45 44 51 51 52
51 51 45 47 42 29 27 60 99 100 86 98 91 99 93 77 70 65 56 48 42 42 45 64 70 74 70 70 74 68 60 52 59 62 63 67 79 86 70 62 56 55 56 60 61 69 72
58 63 60 58 58 56 48 34 94 100 96 100 95 100 92 79 72 71 63 54 48 52 65 68 70 72 78 80 73 92 61 50 37 52 40 52 65 75 71 65 69 60 66 77 76 99 88
72 74 71 65 63 56 52 62 90 99 100 100 99 100 99 94 80 78 70 58 58 65 68 74 76 73 79 80 80 88 81 59 51 52 53 60 69 71 70 71 65 65 74 85 94 86 90
82 83 80 71 81 79 68 100 95 99 99 99 99 99 99 98 92 80 66 61 62 71 79 83 87 77 77 78 76 72 95 71 81 72 70 87 81 92 92 92 91 81 85 89 96 96 96
76 82 77 90 98 91 83 98 99 100 99 99 100 99 99 98 94 77 69 73 79 89 84 83 86 90 92 67 60 57 69 86 82 87 78 87 83 83 94 82 75 74 82 91 90 89 78
Wind_Speed
7 7 8 8 7 6 5 4 3 4 6 7 9 10 11 12 13 13 14 14 14 15 15 16 16 18 20 20 21 22 23 25 26 24 21 21 22 19 16 17 14 15 17 19 18 21 24
5 6 6 6 7 6 5 4 4 4 5 6 8 8 9 10 12 13 14 15 16 15 15 15 16 16 18 18 20 21 21 23 24 23 20 21 21 19 18 20 16 16 19 14 19 16 20
4 5 5 5 5 6 6 6 6 6 7 8 9 10 10 11 12 12 13 14 15 16 17 14 14 13 16 17 18 20 21 21 21 23 20 21 20 20 22 20 20 16 17 13 19 22 13
4 5 5 6 7 7 7 8 9 9 10 11 12 13 14 15 15 15 15 14 15 16 16 18 14 15 13 17 19 20 20 21 20 20 20 20 19 19 21 22 16 16 12 21 19 17 13
6 7 7 7 8 9 10 10 10 12 14 14 15 15 15 16 16 18 17 17 16 16 16 18 17 15 11 16 16 19 19 19 20 19 17 18 20 22 25 24 18 18 23 20 21 16 11
8 8 9 10 11 11 11 13 13 14 15 17 18 18 17 18 18 19 19 19 18 17 15 19 13 11 13 16 15 18 20 17 19 19 17 16 20 23 25 26 19 25 23 23 24 14 8
9 9 9 10 11 12 13 14 15 15 16 17 19 19 20 20 20 20 19 19 19 18 19 18 19 9 12 16 14 16 19 17 16 18 19 13 19 23 26 24 26 20 18 22 11 16 15
8 8 9 9 10 10 12 13 14 16 17 18 18 19 20 21 20 21 21 21 20 20 21 20 18 7 11 18 15 15 18 20 15 17 21 13 16 20 27 22 27 20 22 21 11 13 15
8 8 8 9 10 10 10 12 12 14 17 18 18 18 20 21 22 21 20 20 19 20 23 21 9 5 11 19 14 16 18 19 18 17 20 14 17 19 27 22 28 27 21 16 14 14 19
9 10 11 11 11 11 11 13 13 16 21 20 19 18 18 21 21 22 21 21 19 19 19 7 3 3 12 19 8 16 17 20 18 17 18 11 16 20 27 24 27 27 16 10 12 14 14
13 12 12 13 13 13 15 19 17 21 23 18 20 20 21 22 22 22 22 20 17 22 5 6 4 5 15 20 15 13 15 18 18 15 19 17 16 21 27 21 24 31 10 9 9 10 12
17 16 15 17 18 17 18 19 20 23 23 18 22 22 21 20 20 19 20 17 17 9 5 4 5 10 17 21 12 13 16 17 11 16 19 16 14 21 24 21 19 28 9 6 9 6 9
21 21 21 21 20 22 23 24 22 25 24 21 25 24 20 17 18 18 17 17 9 4 7 4 8 16 21 16 11 14 15 17 12 14 22 19 12 19 23 25 18 27 28 8 6 7 2
27 24 25 22 25 22 26 22 20 21 22 25 25 22 17 20 19 18 15 12 5 6 9 15 14 20 16 9 11 17 14 13 10 14 15 13 12 18 22 21 18 19 17 6 1 2 5
32 30 30 27 26 28 23 24 16 22 24 24 24 22 20 20 21 20 16 10 6 8 9 11 18 14 8 11 16 9 14 6 8 12 14 9 10 14 21 17 15 12 12 14 3 1 1
35 33 36 32 30 20 20 24 18 19 17 19 23 24 20 23 23 20 16 15 13 13 14 14 13 8 11 18 11 13 7 6 10 9 17 14 12 10 21 12 10 13 15 10 8 4 4
38 34 38 34 31 27 26 21 21 22 17 21 24 24 23 24 21 18 14 13 12 12 12 10 13 14 13 9 11 12 5 8 6 14 17 16 9 21 19 11 7 10 10 13 5 4 2
37 38 41 41 38 35 31 25 27 19 21 20 23 26 25 21 21 16 13 14 13 13 13 13 14 9 5 8 8 7 6 9 12 15 14 11 14 16 18 3 10 7 11 14 4 3 6
30 36 40 40 38 34 33 24 30 19 19 20 24 25 25 16 15 15 15 14 14 16 14 8 5 9 9 7 6 6 11 12 13 12 11 15 7 14 10 3 11 19 18 17 11 10 7
30 40 39 40 39 37 34 30 30 20 21 20 24 22 25 24 17 16 17 18 17 15 9 9 13 11 9 9 10 12 16 13 12 15 21 18 13 13 14 22 24 24 26 21 15 8 10
40 41 38 38 39 36 30 34 31 27 22 21 23 25 23 19 21 19 15 13 10 13 17 13 11 10 10 11 19 20 16 18 19 22 15 17 18 20 23 25 27 23 17 16 21 21 17
38 36 35 36 37 31 35 32 25 24 25 27 26 24 23 23 23 21 20 19 16 15 15 15 14 14 15 18 18 20 21 22 27 20 15 20 16 22 31 22 13 21 25 15 11 14 21
33 33 33 32 35 32 37 33 35 31 32 30 23 25 25 25 25 22 19 18 17 16 15 15 15 17 21 21 21 19 23 25 24 26 27 28 23 17 12 14 19 15 6 8 10 11 14
31 29 28 30 32 32 38 34 30 34 34 25 27 25 26 27 24 20 19 20 18 18 18 18 20 22 23 22 22 22 23 23 22 22 23 27 24 16 14 18 3 6 9 14 16 18 17
30 30 29 30 31 35 39 40 39 35 39 30 29 26 27 27 23 21 20 21 20 20 19 22 20 20 19 19 20 20 23 9 6 10 12 14 16 10 6 6 13 18 19 17 18 19 18
32 30 30 30 30 32 34 38 29 34 40 33 28 25 27 26 27 23 23 21 22 21 22 22 22 20 17 20 21 6 4 10 5 5 9 11 12 13 9 5 5 5 14 17 21 18 18
33 32 31 31 34 31 32 32 34 38 31 30 29 25 29 27 28 25 24 20 21 22 23 23 20 21 19 22 14 10 8 8 6 6 6 10 12 20 21 11 11 16 15 15 12 15 17
33 33 33 31 29 28 28 30 30 32 35 35 28 29 30 28 28 25 23 23 24 23 23 22 21 20 17 12 7 5 8 9 11 14 12 12 10 11 11 9 12 16 17 14 17 23 29
35 35 34 26 28 26 27 29 34 34 35 26 29 30 28 29 23 21 26 25 25 22 19 21 20 23 16 11 11 11 12 14 15 11 15 15 19 14 12 13 25 33 32 31 31 32 37
Wind_Direction
58 55 52 44 44 43 45 46 45 34 24 23 25 22 16 12 12 12 10 6 2 354 359 4 3 5 8 10 12 11 9 10 8 4 1 359 358 0 356 344 335 340 335 335 322 304 283
43 39 37 32 29 24 18 4 358 340 347 354 355 359 3 358 358 359 359 359 359 353 345 350 357 355 358 5 2 3 4 6 10 5 357 358 358 0 356 348 337 325 331 350 349 341 319
14 12 9 4 3 6 358 350 336 326 329 326 324 329 334 336 339 341 343 345 347 349 350 332 344 342 351 356 358 357 357 358 4 7 4 0 1 359 351 350 333 325 325 345 345 356 356
322 329 332 336 332 338 338 336 337 331 323 321 322 323 327 327 327 328 328 330 333 338 338 344 326 343 344 352 354 355 352 351 354 360 5 8 11 4 353 344 342 343 327 337 345 348 4
288 298 307 312 315 324 324 324 327 325 324 323 325 327 329 327 327 327 328 325 326 327 326 337 328 332 343 350 348 350 352 348 350 348 354 1 6 10 4 355 349 344 332 335 340 335 327
281 287 294 302 308 312 317 320 324 323 322 322 322 323 323 321 326 325 324 324 326 323 321 326 330 323 339 351 344 346 350 347 349 349 338 352 3 1 2 0 343 331 333 343 341 358 322
283 286 290 300 306 314 317 319 321 319 320 322 323 321 320 317 318 318 319 321 322 327 329 325 317 293 334 345 345 347 348 351 346 351 350 337 357 360 1 357 358 347 346 339 1 356 348
277 285 294 302 308 314 317 323 325 325 324 324 323 321 319 316 316 316 319 321 325 325 329 322 313 268 336 347 344 346 348 351 348 347 354 352 358 359 1 354 6 1 1 360 22 9 14
284 291 299 306 312 317 323 327 331 333 332 329 325 324 323 319 316 318 319 316 317 323 326 319 297 257 340 345 337 344 346 349 353 355 353 349 356 3 5 360 4 12 3 18 7 25 33
281 290 297 301 304 308 314 320 320 329 332 326 321 320 321 319 316 319 320 317 319 327 319 300 253 254 334 345 331 336 344 349 355 0 359 347 351 0 7 5 1 1 354 18 23 34 41
275 279 287 292 298 303 306 315 314 324 330 324 325 310 310 317 317 320 322 319 317 329 344 310 267 299 335 342 331 335 342 346 347 1 5 356 355 358 6 2 7 360 0 28 32 40 62
266 272 282 285 289 295 305 314 309 318 325 318 332 329 321 324 323 316 318 319 322 317 261 301 297 319 328 332 327 336 345 349 345 352 2 6 358 3 0 9 9 6 13 36 51 38 34
265 271 280 281 283 288 297 306 305 311 317 314 321 326 329 336 338 329 317 318 319 240 318 303 313 321 324 329 330 338 342 348 359 357 350 4 359 356 355 5 10 13 25 14 33 22 255
267 271 270 276 283 281 294 293 298 304 309 312 320 320 322 327 331 329 319 314 261 278 286 299 310 316 320 327 326 333 341 350 360 359 346 345 348 359 356 8 1 21 31 51 29 1 297
258 267 272 269 284 278 287 289 272 289 305 308 319 318 314 321 321 317 305 292 270 279 284 297 306 314 315 319 324 332 335 345 355 352 1 329 326 353 358 359 22 20 22 18 360 311 338
260 262 267 274 272 270 292 283 261 285 310 307 313 313 318 320 318 316 299 286 275 279 289 298 309 300 306 317 323 334 338 334 342 349 343 331 313 342 351 351 26 29 33 16 13 23 356
265 267 267 267 263 275 283 282 261 281 305 307 305 312 316 318 315 313 298 287 283 281 288 297 297 294 303 316 319 333 320 323 333 327 333 333 326 324 351 339 27 39 49 15 23 38 112
268 266 265 267 268 268 274 284 259 277 293 298 296 305 310 312 305 301 289 289 284 280 284 289 291 284 285 309 317 318 313 303 308 320 332 329 317 308 335 37 24 43 3 347 12 313 293
276 272 265 265 263 262 271 271 262 272 280 295 293 305 308 306 298 301 287 283 280 285 286 277 245 284 287 300 318 292 304 293 299 310 321 332 310 321 341 185 346 320 325 319 310 300 237
274 280 270 263 261 262 264 257 260 273 277 284 288 301 301 303 295 290 284 282 279 280 270 269 282 276 272 281 300 304 299 291 293 305 308 308 294 279 266 294 306 307 311 310 301 248 240
270 271 267 262 260 260 253 259 254 261 273 278 282 295 294 288 288 285 278 268 268 277 281 279 275 264 270 291 310 309 299 293 296 303 297 304 288 291 296 299 301 296 297 292 268 260 247
269 268 261 255 253 248 251 251 240 260 275 274 276 287 289 287 288 282 273 273 274 274 269 273 267 272 278 297 299 297 295 300 303 305 302 298 291 301 302 315 304 308 307 286 269 244 245
267 266 260 254 251 238 246 248 259 260 274 261 270 277 278 280 283 281 274 267 269 271 271 268 271 277 288 295 293 289 293 298 295 289 288 288 285 294 290 300 308 300 223 246 267 256 247
266 264 262 256 248 239 248 248 238 268 267 256 266 268 271 277 279 275 270 270 268 268 265 273 283 289 292 293 293 295 297 298 284 277 271 272 276 274 277 298 258 259 261 261 262 265 263
262 264 262 256 248 246 250 242 258 246 255 257 261 261 267 269 273 269 271 266 264 266 267 280 285 288 288 292 299 302 310 310 282 260 263 258 255 253 262 245 278 273 263 257 258 266 263
262 262 260 260 259 253 249 249 245 242 256 245 253 255 262 267 271 268 263 262 263 263 274 279 285 284 285 294 301 270 273 288 255 270 266 262 246 227 237 255 258 294 248 256 264 267 268
259 261 261 259 259 257 250 242 241 250 243 248 246 251 258 261 265 265 264 259 258 267 273 284 275 279 281 293 288 274 260 237 260 243 256 250 249 239 248 251 266 265 252 260 256 273 278
257 261 261 261 255 253 245 236 240 240 246 248 243 255 255 255 258 259 260 255 260 264 272 274 282 278 285 275 256 251 249 255 250 245 256 248 250 253 246 245 255 263 268 275 282 293 300
258 259 257 250 253 254 249 226 239 249 241 255 259 254 249 246 248 251 252 256 263 267 274 270 263 278 272 271 275 281 261 265 269 265 258 263 244 254 233 249 277 285 287 291 296 297 300